Location: Unspecified
(34.4950°S, 58.5160°W)
Time: 13:51:07
(UTC+00:00)

BlueWalker 3 - Pass Details

Date: 18 February 2026
Orbit: 451 x 458 km, 53.2° (Epoch: 4 March)

Event Time Altitude Azimuth Distance (km) Brightness Sun altitude
Exits shadow 08:27:58 13° 339° (NNW) 1,409 3.8 -13.2°
Drops below altitude 10° 08:28:45 10° 350° (N) 1,605 4.2 -13.0°
Sets 08:31:22 0° 9° (N) 2,470 5.3 -12.5°
